AAL122 KMEM-KDFW

Flight info

Callsign AAL122
Flight time N/A
Altitude 38000
Route CHLDR5 ANSWA FEWWW BRDJE5
Aircraft A319/M-SDE3FGHIRWY/LB1

Departure

Time 2026-05-06 01:37
Airport Memphis International Airport (KMEM)

Arrival

Time N/A
Airport Dallas Fort Worth International Airport (KDFW)
Time Latitude Longitude Altitude Speed Heading
2026-05-06 01:17 35.04079 -89.98028 311 ft 0 kts 44°
2026-05-06 01:25 35.04066 -89.98044 311 ft 3 kts 44°
2026-05-06 01:26 35.04050 -89.98062 311 ft 3 kts 24°
2026-05-06 01:26 35.04025 -89.98076 308 ft 4 kts 24°
2026-05-06 01:26 35.03999 -89.98090 309 ft 4 kts
2026-05-06 01:26 35.03995 -89.98091 308 ft 0 kts
2026-05-06 01:29 35.04004 -89.98076 309 ft 7 kts 73°
2026-05-06 01:29 35.03981 -89.97919 313 ft 33 kts 83°
2026-05-06 01:30 35.03982 -89.97900 313 ft 35 kts 84°
2026-05-06 01:30 35.03989 -89.97782 312 ft 2 kts 78°
2026-05-06 01:30 35.03990 -89.97776 312 ft 1 kts 78°
2026-05-06 01:31 35.03997 -89.97753 311 ft 2 kts 57°
2026-05-06 01:31 35.04033 -89.97738 314 ft 15 kts
2026-05-06 01:31 35.04227 -89.97744 316 ft 41 kts 358°
2026-05-06 01:31 35.04501 -89.97750 317 ft 32 kts
2026-05-06 01:32 35.04738 -89.97754 312 ft 34 kts 358°
2026-05-06 01:32 35.04978 -89.97756 315 ft 35 kts
2026-05-06 01:32 35.05225 -89.97765 319 ft 35 kts 358°
2026-05-06 01:32 35.05311 -89.97769 321 ft 5 kts 356°
2026-05-06 01:33 35.05346 -89.97774 321 ft 8 kts 352°
2026-05-06 01:33 35.05431 -89.97761 324 ft 14 kts 44°
2026-05-06 01:33 35.05442 -89.97731 326 ft 0 kts 78°
2026-05-06 01:34 35.05445 -89.97700 326 ft 10 kts 88°
2026-05-06 01:34 35.05415 -89.97621 326 ft 9 kts 152°
2026-05-06 01:35 35.05399 -89.97618 323 ft 0 kts 178°
2026-05-06 01:37 35.05173 -89.97610 319 ft 75 kts 180°
2026-05-06 01:37 35.04376 -89.97606 449 ft 140 kts 183°
2026-05-06 01:37 35.03396 -89.97662 1401 ft 141 kts 186°
2026-05-06 01:37 35.02423 -89.97739 2494 ft 137 kts 190°
2026-05-06 01:38 35.01815 -89.97790 3242 ft 128 kts 193°
2026-05-06 01:38 35.00696 -89.98084 4205 ft 138 kts 217°
2026-05-06 01:38 34.99752 -89.98774 4535 ft 176 kts 212°
2026-05-06 01:38 34.98959 -89.99231 4657 ft 203 kts 208°
2026-05-06 01:39 34.96945 -90.00190 4739 ft 251 kts 203°
2026-05-06 01:39 34.95846 -90.00639 4768 ft 246 kts 204°
2026-05-06 01:39 34.94436 -90.01766 4757 ft 243 kts 231°
2026-05-06 01:39 34.93805 -90.03626 4762 ft 244 kts 261°
2026-05-06 01:40 34.93841 -90.05720 4789 ft 248 kts 270°
2026-05-06 01:40 34.93992 -90.07774 4806 ft 245 kts 270°
2026-05-06 01:40 34.94059 -90.09873 4803 ft 246 kts 266°
2026-05-06 01:40 34.94043 -90.11929 4808 ft 243 kts 264°
2026-05-06 01:41 34.93966 -90.14015 4813 ft 245 kts 263°
2026-05-06 01:41 34.93853 -90.16092 5068 ft 246 kts 262°
2026-05-06 01:41 34.93712 -90.18133 5998 ft 242 kts 262°
2026-05-06 01:41 34.93555 -90.20163 7190 ft 242 kts 263°
2026-05-06 01:42 34.93409 -90.22233 8338 ft 245 kts 264°
2026-05-06 01:42 34.93276 -90.24319 9533 ft 247 kts 265°
2026-05-06 01:42 34.93148 -90.26429 10437 ft 258 kts 266°
2026-05-06 01:42 34.93021 -90.28674 10995 ft 278 kts 266°
2026-05-06 01:43 34.92885 -90.31135 11587 ft 297 kts 266°
2026-05-06 01:43 34.92744 -90.33709 12199 ft 312 kts 266°
2026-05-06 01:43 34.92596 -90.36407 12826 ft 326 kts 266°
2026-05-06 01:43 34.92441 -90.39212 13492 ft 336 kts 266°
2026-05-06 01:44 34.92287 -90.42055 14335 ft 337 kts 266°
2026-05-06 01:44 34.92128 -90.44873 15027 ft 334 kts 266°
2026-05-06 01:44 34.91964 -90.47720 15383 ft 338 kts 266°
2026-05-06 01:44 34.91796 -90.50604 15626 ft 346 kts 266°
2026-05-06 01:45 34.91624 -90.53541 15724 ft 345 kts 266°
2026-05-06 01:45 34.91452 -90.56443 15772 ft 344 kts 266°
2026-05-06 01:45 34.91276 -90.59377 15786 ft 346 kts 266°
2026-05-06 01:45 34.91102 -90.62284 15798 ft 345 kts 266°
2026-05-06 01:46 34.90925 -90.65194 15826 ft 343 kts 266°
2026-05-06 01:46 34.90745 -90.68112 16207 ft 345 kts 266°
2026-05-06 01:46 34.90519 -90.71018 17023 ft 346 kts 264°
2026-05-06 01:46 34.90227 -90.73925 17798 ft 348 kts 263°
2026-05-06 01:47 34.89864 -90.76849 18458 ft 351 kts 262°
2026-05-06 01:47 34.89449 -90.79803 19042 ft 354 kts 261°
2026-05-06 01:47 34.89010 -90.82742 19616 ft 357 kts 261°
2026-05-06 01:47 34.88545 -90.85770 20178 ft 361 kts 261°
2026-05-06 01:48 34.88084 -90.88740 20725 ft 364 kts 261°
2026-05-06 01:48 34.87602 -90.91828 21273 ft 367 kts 262°
2026-05-06 01:48 34.87126 -90.94883 21797 ft 371 kts 262°
2026-05-06 01:48 34.86649 -90.97947 22304 ft 374 kts 262°
2026-05-06 01:49 34.86159 -91.01090 22819 ft 377 kts 262°
2026-05-06 01:49 34.85673 -91.04216 23316 ft 380 kts 262°
2026-05-06 01:49 34.85180 -91.07390 23747 ft 382 kts 262°
2026-05-06 01:49 34.84682 -91.10596 24166 ft 384 kts 262°
2026-05-06 01:50 34.84186 -91.13789 24594 ft 386 kts 262°
2026-05-06 01:50 34.83687 -91.17004 25089 ft 386 kts 262°
2026-05-06 01:50 34.83183 -91.20235 25505 ft 388 kts 262°
2026-05-06 01:50 34.82682 -91.23447 25909 ft 390 kts 262°
2026-05-06 01:51 34.82156 -91.26815 26348 ft 391 kts 262°
2026-05-06 01:51 34.81649 -91.30044 26928 ft 388 kts 262°
2026-05-06 01:51 34.81143 -91.33258 27520 ft 386 kts 262°
2026-05-06 01:51 34.80645 -91.36417 28112 ft 383 kts 262°
2026-05-06 01:52 34.80142 -91.39595 28719 ft 380 kts 262°
2026-05-06 01:52 34.79644 -91.42745 29329 ft 378 kts 262°
2026-05-06 01:52 34.79150 -91.45866 29922 ft 375 kts 263°
2026-05-06 01:52 34.78661 -91.48950 30450 ft 372 kts 263°
2026-05-06 01:53 34.78168 -91.52055 30997 ft 369 kts 263°
2026-05-06 01:53 34.77686 -91.55111 31498 ft 366 kts 262°
2026-05-06 01:53 34.77207 -91.58142 32008 ft 363 kts 262°
2026-05-06 01:53 34.76727 -91.61155 32532 ft 361 kts 262°
2026-05-06 01:54 34.76252 -91.64127 33059 ft 358 kts 262°
2026-05-06 01:54 34.75777 -91.67093 33592 ft 354 kts 262°
2026-05-06 01:54 34.75308 -91.70018 34065 ft 352 kts 262°
2026-05-06 01:54 34.74835 -91.72931 34470 ft 351 kts 262°
2026-05-06 01:55 34.74277 -91.75784 34855 ft 350 kts 260°
2026-05-06 01:55 34.73655 -91.78638 35234 ft 349 kts 259°
2026-05-06 01:55 34.73004 -91.81477 35627 ft 348 kts 259°
2026-05-06 01:55 34.72342 -91.84292 36014 ft 347 kts 259°
2026-05-06 01:56 34.71665 -91.87130 36334 ft 347 kts 258°
2026-05-06 01:56 34.70990 -91.89935 36674 ft 346 kts 258°
2026-05-06 01:56 34.70308 -91.92751 37159 ft 343 kts 258°
2026-05-06 01:56 34.69641 -91.95475 37507 ft 333 kts 258°
2026-05-06 01:57 34.68980 -91.98153 37669 ft 331 kts 258°
2026-05-06 01:57 34.68315 -92.00856 37735 ft 335 kts 258°
2026-05-06 01:57 34.66961 -92.06346 37773 ft 342 kts 258°
2026-05-06 01:58 34.65594 -92.11846 37779 ft 338 kts 258°
2026-05-06 01:58 34.64245 -92.17247 37783 ft 336 kts 258°
2026-05-06 01:59 34.62875 -92.22735 37783 ft 338 kts 258°
2026-05-06 01:59 34.61513 -92.28173 37781 ft 338 kts 258°
2026-05-06 02:00 34.60155 -92.33598 37805 ft 331 kts 257°
2026-05-06 02:00 34.58812 -92.38925 37802 ft 331 kts 257°
2026-05-06 02:01 34.57456 -92.44301 37805 ft 335 kts 257°
2026-05-06 02:01 34.56088 -92.49710 37795 ft 334 kts 257°
2026-05-06 02:02 34.54729 -92.55064 37802 ft 332 kts 257°
2026-05-06 02:02 34.53368 -92.60426 37782 ft 333 kts 257°
2026-05-06 02:03 34.52000 -92.65801 37779 ft 334 kts 257°
2026-05-06 02:03 34.50654 -92.71116 37788 ft 329 kts 257°
2026-05-06 02:04 34.49305 -92.76394 37775 ft 327 kts 257°
2026-05-06 02:04 34.47951 -92.81678 37784 ft 330 kts 257°
2026-05-06 02:05 34.46582 -92.87010 37789 ft 330 kts 257°
2026-05-06 02:05 34.45227 -92.92274 37771 ft 328 kts 257°
2026-05-06 02:06 34.43861 -92.97572 37727 ft 329 kts 257°
2026-05-06 02:06 34.42485 -93.02888 37767 ft 335 kts 257°
2026-05-06 02:07 34.41101 -93.08272 37763 ft 334 kts 256°
2026-05-06 02:07 34.39719 -93.13606 37766 ft 331 kts 256°
2026-05-06 02:08 34.38338 -93.18923 37769 ft 333 kts 256°
2026-05-06 02:08 34.36942 -93.24286 37761 ft 333 kts 256°
2026-05-06 02:09 34.35548 -93.29626 37760 ft 332 kts 256°
2026-05-06 02:09 34.34164 -93.34920 37755 ft 332 kts 256°
2026-05-06 02:10 34.32769 -93.40256 37747 ft 333 kts 256°
2026-05-06 02:10 34.31367 -93.45599 37743 ft 333 kts 256°
2026-05-06 02:11 34.29967 -93.50927 37745 ft 332 kts 256°
2026-05-06 02:11 34.28567 -93.56244 37739 ft 332 kts 256°
2026-05-06 02:12 34.27156 -93.61594 37742 ft 333 kts 256°
2026-05-06 02:12 34.25751 -93.66911 37748 ft 332 kts 256°
2026-05-06 02:13 34.24342 -93.72233 37748 ft 332 kts 256°
2026-05-06 02:13 34.22927 -93.77564 37746 ft 333 kts 256°
2026-05-06 02:14 34.21521 -93.82868 37736 ft 333 kts 256°
2026-05-06 02:14 34.20494 -93.88319 37736 ft 331 kts 266°
2026-05-06 02:15 34.20437 -93.93879 37744 ft 332 kts 269°
2026-05-06 02:15 34.20597 -93.99462 37748 ft 332 kts 271°
2026-05-06 02:16 34.20856 -94.05030 37749 ft 331 kts 271°
2026-05-06 02:16 34.21167 -94.10578 37748 ft 332 kts 271°
2026-05-06 02:17 34.21449 -94.15207 37751 ft 333 kts 272°
2026-05-06 02:17 34.21807 -94.20785 37758 ft 332 kts 271°
2026-05-06 02:18 34.22175 -94.26342 37752 ft 331 kts 271°
2026-05-06 02:18 34.22542 -94.31896 37754 ft 332 kts 271°
2026-05-06 02:19 34.22911 -94.37465 37755 ft 333 kts 271°
2026-05-06 02:19 34.23279 -94.43008 37756 ft 332 kts 271°
2026-05-06 02:20 34.23832 -94.51359 37755 ft 333 kts 271°
2026-05-06 02:21 34.24197 -94.56939 37753 ft 333 kts 271°
2026-05-06 02:21 34.24568 -94.62495 37764 ft 331 kts 271°
2026-05-06 02:22 34.24928 -94.68042 37764 ft 331 kts 271°
2026-05-06 02:22 34.25283 -94.73603 37765 ft 332 kts 271°
2026-05-06 02:23 34.25639 -94.79163 37767 ft 332 kts 271°
2026-05-06 02:23 34.25991 -94.84697 37770 ft 332 kts 271°
2026-05-06 02:24 34.26344 -94.90280 37780 ft 331 kts 271°
2026-05-06 02:24 34.26694 -94.95857 37791 ft 332 kts 271°
2026-05-06 02:25 34.27044 -95.01378 37774 ft 331 kts 271°
2026-05-06 02:25 34.27388 -95.06922 37788 ft 330 kts 270°
2026-05-06 02:26 34.27727 -95.12459 37792 ft 331 kts 270°
2026-05-06 02:26 34.28064 -95.18014 37787 ft 332 kts 270°
2026-05-06 02:27 34.28400 -95.23583 37799 ft 331 kts 270°
2026-05-06 02:27 34.28731 -95.29087 37805 ft 330 kts 270°
2026-05-06 02:28 34.29065 -95.34636 37825 ft 331 kts 270°
2026-05-06 02:28 34.29400 -95.40168 37821 ft 330 kts 270°
2026-05-06 02:29 34.29724 -95.45697 37823 ft 329 kts 270°
2026-05-06 02:29 34.29885 -95.48473 37556 ft 334 kts 270°
2026-05-06 02:29 34.30046 -95.51305 37070 ft 339 kts 270°
2026-05-06 02:29 34.30211 -95.54156 36581 ft 337 kts 270°
2026-05-06 02:30 34.30373 -95.56945 36108 ft 335 kts 270°
2026-05-06 02:30 34.30537 -95.59780 35642 ft 336 kts 270°
2026-05-06 02:30 34.30696 -95.62574 35186 ft 338 kts 270°
2026-05-06 02:30 34.30858 -95.65423 34751 ft 341 kts 270°
2026-05-06 02:31 34.31023 -95.68329 34298 ft 343 kts 270°
2026-05-06 02:31 34.31184 -95.71181 33893 ft 344 kts 269°
2026-05-06 02:31 34.31352 -95.74103 33399 ft 344 kts 269°
2026-05-06 02:31 34.31512 -95.76941 32915 ft 340 kts 269°
2026-05-06 02:32 34.31671 -95.79779 32434 ft 336 kts 269°
2026-05-06 02:32 34.31827 -95.82602 31952 ft 334 kts 269°
2026-05-06 02:32 34.31646 -95.85362 31455 ft 330 kts 253°
2026-05-06 02:32 34.30493 -95.87782 30947 ft 340 kts 233°
2026-05-06 02:33 34.28532 -95.89455 30477 ft 357 kts 218°
2026-05-06 02:33 34.26997 -95.90303 30171 ft 359 kts 215°